"Pseudo-MPEC" for P225iTc

Created 2025 Jan 12 13:31:06 UT using Find_Orb

Click here for an explanation of pseudo-MPECs

 
 Astrometry: 
     P225iTc* C2025 01 06.56833112 28 29.951+14 33 05.28   ~16Kl 21.20wXNEOCPF52
     P225iTc  C2025 01 06.58990312 28 35.928+14 31 22.42   ~17EH 21.40GVNEOCPF52
     P225iTc  C2025 01 06.60073812 28 38.899+14 30 30.58   ~16Kl 21.50wXNEOCPF52

Station data:
(F52) Pan-STARRS 2, Haleakala  (N20.707382 W156.255910)  US/Hawaii.
   Observers J. Bulger, T. Dukes, T. Lowe, A. Schultz, M. Willman. Measurers
   K. Chambers, S. Chastel, T. de Boer, L. Denneau, J. Fairlamb, H.
   Flewelling, M. Huber, C.-C. Lin, E. Magnier, Y. Ramanjooloo, R. Wainscoat,
   R. Weryk. 1.8-m Ritchey-Chrétien + CCD.

Orbital elements:  P225iTc
   Perihelion 2025 Mar 14.41258 +/- 19.6 TT =  9:54:06 (JD 2460748.91258)
Epoch 2025 Jan  7.0 TT = JDT 2460682.5   Earth MOID: 0.0028      AutoNEOCP
M 263.35571156 +/- 46               (J2000 ecliptic)
n   1.45521057 +/- 0.887            Peri.  326.28722 +/- 57
a   0.77123279 +/- 0.314            Node   301.89445 +/- 23
e   0.6234611 +/- 0.209             Incl.   29.90801 +/- 43
P   0.677/247.382d         H 22.43  G  0.15   U 12.7  SR
q 0.29039913 +/- 0.319    Q 1.25206645 +/- 17.9
From 3 observations 2025 Jan. 6 (46.7 min); mean residual 0".09
Residuals in arcseconds: 
250106 F52  .06-  .00     250106 F52  .17+  .00     250106 F52  .11-  .00     

Ephemerides (geocentric):
Date (UTC) HH   RA             Dec           delta  r     elong  mag " sig PA
---- --------  ------------   ------------  ------ ------ -----  --- --------
2025 01 12 14  13 10 11.165   +02 13 22.27  .13512 1.0086  96.9 20.7  65d  80
2025 01 12 15  13 10 36.176   +02 05 38.92  .13469 1.0083  96.8 20.7  66d  80
2025 01 12 16  13 11 01.339   +01 57 52.58  .13426 1.0079  96.7 20.7  66d  80
2025 01 12 17  13 11 26.657   +01 50 03.25  .13383 1.0076  96.6 20.7  66d  80
2025 01 12 18  13 11 52.129   +01 42 10.91  .13340 1.0073  96.5 20.7  66d  80
2025 01 12 19  13 12 17.759   +01 34 15.53  .13298 1.0069  96.4 20.7  66d  80
2025 01 12 20  13 12 43.547   +01 26 17.10  .13255 1.0066  96.2 20.7  66d  80
2025 01 12 21  13 13 09.494   +01 18 15.59  .13213 1.0062  96.1 20.7  66d  80
2025 01 12 22  13 13 35.602   +01 10 10.98  .13170 1.0059  96.0 20.7  66d  80
2025 01 12 23  13 14 01.873   +01 02 03.26  .13128 1.0056  95.9 20.7  66d  80
2025 01 13 00  13 14 28.307   +00 53 52.41  .13086 1.0052  95.8 20.7  66d  80
2025 01 13 01  13 14 54.907   +00 45 38.39  .13044 1.0049  95.7 20.7  66d  80
2025 01 13 02  13 15 21.673   +00 37 21.20  .13002 1.0045  95.6 20.7  66d  80
2025 01 13 03  13 15 48.608   +00 29 00.82  .12961 1.0042  95.5 20.7  66d  80
2025 01 13 04  13 16 15.712   +00 20 37.21  .12919 1.0039  95.4 20.7  66d  80
2025 01 13 05  13 16 42.988   +00 12 10.38  .12878 1.0035  95.2 20.7  66d  80
2025 01 13 06  13 17 10.436   +00 03 40.28  .12836 1.0032  95.1 20.7  66d  80
2025 01 13 07  13 17 38.058   -00 04 53.09  .12795 1.0028  95.0 20.7  67d  80
2025 01 13 08  13 18 05.856   -00 13 29.76  .12754 1.0025  94.9 20.7  67d  80
2025 01 13 09  13 18 33.832   -00 22 09.74  .12713 1.0021  94.8 20.7  67d  80
2025 01 13 10  13 19 01.986   -00 30 53.07  .12672 1.0018  94.6 20.7  67d  80
2025 01 13 11  13 19 30.321   -00 39 39.74  .12631 1.0015  94.5 20.7  67d  80
2025 01 13 12  13 19 58.838   -00 48 29.79  .12591 1.0011  94.4 20.7  67d  80
2025 01 13 13  13 20 27.538   -00 57 23.24  .12550 1.0008  94.3 20.7  67d  80
2025 01 13 14  13 20 56.424   -01 06 20.10  .12510 1.0004  94.2 20.7  67d  80
2025 01 13 15  13 21 25.497   -01 15 20.40  .12470 1.0001  94.0 20.7  67d  80
2025 01 13 16  13 21 54.758   -01 24 24.15  .12430 0.9997  93.9 20.7  67d  80
2025 01 13 17  13 22 24.210   -01 33 31.37  .12390 0.9994  93.8 20.7  67d  80
2025 01 13 18  13 22 53.854   -01 42 42.08  .12350 0.9990  93.6 20.7  67d  80
2025 01 13 19  13 23 23.692   -01 51 56.30  .12311 0.9987  93.5 20.6  67d  80
2025 01 13 20  13 23 53.725   -02 01 14.06  .12271 0.9983  93.4 20.6  67d  80
2025 01 13 21  13 24 23.955   -02 10 35.35  .12232 0.9980  93.3 20.6  67d  80
2025 01 13 22  13 24 54.384   -02 20 00.22  .12193 0.9977  93.1 20.6  67d  80
2025 01 13 23  13 25 25.014   -02 29 28.67  .12154 0.9973  93.0 20.6  67d  80
2025 01 14 00  13 25 55.847   -02 39 00.72  .12115 0.9970  92.9 20.6  67d  80
2025 01 14 01  13 26 26.884   -02 48 36.39  .12076 0.9966  92.7 20.6  67d  80
2025 01 14 02  13 26 58.127   -02 58 15.69  .12037 0.9963  92.6 20.6  67d  81
2025 01 14 03  13 27 29.578   -03 07 58.65  .11999 0.9959  92.4 20.6  67d  81
2025 01 14 04  13 28 01.239   -03 17 45.29  .11960 0.9956  92.3 20.6  67d  81
2025 01 14 05  13 28 33.112   -03 27 35.61  .11922 0.9952  92.2 20.6  67d  81
2025 01 14 06  13 29 05.198   -03 37 29.63  .11884 0.9949  92.0 20.6  67d  81
2025 01 14 07  13 29 37.500   -03 47 27.38  .11847 0.9945  91.9 20.6  67d  81
2025 01 14 08  13 30 10.020   -03 57 28.87  .11809 0.9942  91.7 20.6  67d  81
2025 01 14 09  13 30 42.759   -04 07 34.10  .11771 0.9938  91.6 20.6  67d  81
2025 01 14 10  13 31 15.719   -04 17 43.11  .11734 0.9935  91.4 20.6  68d  81
2025 01 14 11  13 31 48.903   -04 27 55.90  .11697 0.9931  91.3 20.6  68d  81
2025 01 14 12  13 32 22.312   -04 38 12.49  .11660 0.9928  91.1 20.6  68d  81
2025 01 14 13  13 32 55.948   -04 48 32.89  .11623 0.9924  91.0 20.6  68d  81